Terminal Aerodrome Forecast
Issued by NWS

Home | Current Version | Previous Version | Text Only | Print | Product List | Glossary On
Versions: 1 2 3 4 5 6 7 8 9 10 11 12 13 14 15 16 17 18 19 20 21 22 23 24 25 26 27 28 29 30 31 32
000
FTUS46 KOTX 221139
TAFSFF
TAF
KSFF 221139Z 2212/2312 09003KT P6SM SCT050 BKN070 BKN150
     FM222200 07006KT P6SM -RA OVC040
     FM230100 11004KT 6SM -RA BR SCT012 OVC025
     FM230300 VRB05KT 4SM -RASN BR OVC012
     FM230700 10004KT 2SM BR SCT004 OVC008=

USA.gov is the U.S. government's official web portal to all federal, state and local government web resources and services.